Simultaneous Nadir Overpasses (SNOs) Predictions

Prediction of SNOs between AQUA and GOES-15 Satellite Orbit:

Table of predicted SNOs for the next 14.0 days since TLE Epoch: 9/28/2019
Index Date Time (AQUA) AQUA Lat,Lon GOES-15 Lat,Lon Distance(km) Time Diff (sec)
1 09/28/2019 10:13:01 0.66,-129.30 0.29,-127.69 183.77 80
2 09/30/2019 10:00:50 0.05,-126.34 0.30,-127.62 144.06 80
3 09/30/2019 22:22:15 -1.15,-131.54 -0.28,-127.56 452.64 80
4 10/02/2019 09:48:39 -0.57,-123.39 0.30,-127.54 471.40 80
5 10/02/2019 22:10:04 -0.53,-128.58 -0.28,-127.48 125.30 80
6 10/04/2019 21:57:53 0.09,-125.63 -0.28,-127.40 201.46 80
7 10/05/2019 10:19:08 1.01,-130.78 0.26,-127.41 383.59 80
8 10/07/2019 10:06:57 0.38,-127.83 0.26,-127.32 57.36 80
9 10/09/2019 09:54:46 -0.25,-124.87 0.26,-127.23 268.72 80
10 10/09/2019 22:16:11 -0.84,-130.07 -0.24,-127.17 329.16 80
11 10/11/2019 22:03:59 -0.26,-127.10 -0.24,-127.08 3.31 80




NCC Satellite Simultaneous Nadir Overpasses (SNOs) Prediction Service
